Preview of NWS' New Version of Forecast
This preview is not operational and should not be used for support decisions.
Latest weather observations around

Danville, Vermilion County Airport (KDNV)

Using English Units (Switch to International System of Units)
Date/ Time (CDT) Wind (mph) Vis. (mi) Weather Sky Cond. Temp (°F) Rel. Humidity Wind Chill (°F) Heat Index (°F) Pressure Precip. (in)
Air Dwpt 6 hour Altimeter (inHg) Sea level (inHg) 1 hr 3 hr 6 hr
Max Min
Aug 22 02:35 NW 6 10 Cloudy SCT048 BKN085 OVC100 73 72     97%   74 29.96        
Aug 22 02:15 NW 7 10 Cloudy OVC100 73 72     98%   74 29.96        
Aug 22 01:55 NW 7 10 Cloudy OVC110 73 72     99%   74 29.95        
Aug 22 01:35 WNW 3 10 Cloudy SCT060 SCT080 OVC120 73 73     99%   75 29.96        
Aug 22 01:15 NW 3 7 Cloudy SCT060 SCT080 OVC120 73 73     100%   74 29.97        
Aug 22 00:55 Calm 10 Mostly Cloudy BKN120 73 73     100%   75 29.98        
Aug 22 00:35 NNW 5 7 Mostly Cloudy BKN120 73 73     100%   75 29.97        
Aug 22 00:15 Calm 7 Partly Cloudy SCT120 74 74     100%   75 29.97        
Aug 21 23:55 W 3 7 Partly Cloudy SCT075 SCT120 74 74     100%   76 29.97        
Aug 21 23:35 NW 5 10 Partly Cloudy SCT060 SCT075 SCT090 74 74     99%   76 29.97        
Aug 21 23:15 WNW 7 10 Light Rain SCT060 SCT070 BKN090 75 74     96%   77 29.96        
Aug 21 22:55 NW 6 10 Mostly Cloudy SCT070 BKN090 76 73     93%   77 29.96        
Aug 21 22:35 W 6 10 Partly Cloudy SCT070 SCT120 76 73     92%   77 29.97        
Aug 21 22:15 WSW 6 10 Clear CLR 76 73     93%   77 29.97        
Aug 21 21:55 WSW 5 10 Clear CLR 76 73     92%   77 29.97        
Aug 21 21:35 WSW 5 10 Clear CLR 76 73     89%   78 29.97        
Aug 21 21:15 WSW 3 10 Clear CLR 75 72     92%   77 29.97        
Aug 21 20:55 SW 3 10 Clear CLR 74 73     95%   76 29.96        
Aug 21 20:35 Calm 10 Clear CLR 75 73     94%   76 29.95        
Aug 21 20:15 W 3 10 Partly Cloudy SCT035 76 72     88%   78 29.95        
Aug 21 19:55 W 3 10 Mostly Cloudy BKN037 77 73     86%   79 29.95        
Aug 21 19:35 W 5 10 Partly Cloudy SCT039 78 73     84%   79 29.95        
Aug 21 19:15 W 3 10 Clear CLR 79 73     83%   82 29.94        
Aug 21 18:55 S 3 10 Clear CLR 79 72     80%   82 29.9        
Aug 21 18:35 ESE 5 10 Clear CLR 80 73     81%   83 29.89        
Aug 21 18:15 Calm 10 Partly Cloudy SCT120 81 71     74%   85 29.93        
Aug 21 17:55 Calm 10 Clear CLR 83 71     68%   87 29.95        
Aug 21 17:35 Calm 10 Clear CLR 83 71     67%   88 29.94        
Aug 21 17:15 ENE 3 10 Clear CLR 81 71     70%   85 29.92        
Aug 21 16:55 NE 6 10 Clear CLR 83 71     67%   89 29.93        
Aug 21 16:35 NNE 6 10 Clear CLR 83 72     70%   88 29.94        
Aug 21 16:15 N 5 10 Clear CLR 82 72     70%   87 29.95        
Aug 21 15:55 WNW 7 10 Partly Cloudy SCT031 83 71     69%   87 29.97        
Aug 21 15:35 WNW 8 10 Partly Cloudy SCT031 82 71     68%   87 29.98        
Aug 21 15:15 W 10 10 Partly Cloudy SCT029 SCT041 SCT065 83 72     68%   88 29.99        
Aug 21 14:55 W 11 10 Cloudy BKN027 BKN034 OVC040 83 72     69%   89 30        
Aug 21 14:35 W 9 10 Mostly Cloudy BKN029 BKN035 82 72     71%   87 29.99        
Aug 21 14:15 W 10 10 Mostly Cloudy BKN029 BKN037 83 72     70%   89 30        
Aug 21 13:55 W 7 10 Partly Cloudy SCT027 83 71     68%   87 30        
Aug 21 13:35 W 7 10 Clear CLR 83 71     69%   88 30        
Aug 21 13:15 WSW 6 10 Clear CLR 83 72     70%   88 30        
Aug 21 12:55 WSW 7 10 Partly Cloudy SCT019 81 71     72%   85 30.01        
Aug 21 12:35 W 3 10 Cloudy OVC019 80 72     75%   84 30.02        
Aug 21 12:15 W 7 10 Cloudy OVC019 79 71     77%   83 30.02        
Aug 21 11:55 SSW 6 10 Cloudy OVC017 78 71     79%   80 30.01        
Aug 21 11:35 SSW 3 10 Cloudy OVC017 77 71     82%   79 30        
Aug 21 11:15 SSW 5 10 Cloudy OVC017 76 73     90%   77 30        
Aug 21 10:55 SW 6 10 Cloudy OVC013 73 73     100%   75 30        
Aug 21 10:35 SW 5 10 Cloudy OVC011 72 72     100%   74 30        
Aug 21 10:15 SSW 6 10 Cloudy BKN008 OVC014 72 72     100%   73 30        
Aug 21 09:55 SW 6 10 Cloudy OVC008 72 72     100%   73 29.99        
Aug 21 09:35 SW 3 10 Cloudy OVC008 71 71     100%   72 29.98        
Aug 21 09:15 SW 3 7 Cloudy OVC005 70 70     100%   72 29.98        
Aug 21 08:55 SSW 5 10 Cloudy OVC005 70 70     100%     29.99        
Aug 21 08:35 SW 3 7 Cloudy OVC003 70 70     100%     29.99        
Aug 21 08:15 S 3 4 Fog/Mist OVC003 69 69     100%     29.98        
Aug 21 07:55 Calm 2 Fog/Mist OVC001 68 68     100%     29.98        
Aug 21 07:35 Calm 1 Fog/Mist OVC001 68 68     100%     29.98        
Aug 21 07:15 Calm 0.5 Fog OVC001 68 68     100%     29.97        
Aug 21 06:55 Calm 0.25 Fog OVC001 68 68     100%     29.96        
Aug 21 06:35 Calm 0.25 Fog OVC001 68 68     100%     29.95        
Aug 21 06:15 Calm 0.25 Fog OVC001 68 68     100%     29.95        
Aug 21 05:55 Calm 0.25 Fog OVC001 67 67     100%     29.95        
Aug 21 05:35 Calm 0.25 Fog OVC001 68 68     100%     29.94        
Aug 21 05:15 Calm 0.25 Fog OVC001 68 68     100%     29.94        
Aug 21 04:55 Calm 0.25 Fog OVC001 68 68     100%     29.95        
Aug 21 04:35 Calm 0.25 Fog OVC001 67 67     100%     29.95        
Aug 21 04:15 Calm 0.25 Fog OVC001 66 66     100%     29.96        
Aug 21 03:55 Calm 0.25 Fog OVC001 66 66     100%     29.97        
Aug 21 03:35 Calm 0.25 Fog OVC001 67 67     100%     29.97        
Aug 21 03:15 Calm 0.25 Fog OVC003 67 67     100%     29.97        
Aug 21 02:55 Calm 0.25 Fog OVC003 67 67     100%     29.97        
Aug 21 02:35 Calm 5 Fog/Mist CLR 67 67     100%     29.97        
Aug 21 02:15 Calm 3 Fog/Mist CLR 68 68     100%     29.98        
Aug 21 01:55 Calm 5 Fog/Mist CLR 69 69     100%     29.97        
Aug 21 01:35 Calm 10 Clear CLR 70 70     100%   72 29.97        
Aug 21 01:15 WNW 5 10 Clear CLR 71 71     100%   72 29.97        
Aug 21 00:55 W 5 10 Clear CLR 71 71     100%   73 29.97        
Aug 21 00:35 W 5 10 Clear CLR 70 70     100%   72 29.97        
Aug 21 00:15 WSW 6 10 Clear CLR 70 70     100%   72 29.98        
Aug 20 23:55 SW 6 10 Clear CLR 70 70     100%   72 29.98        
Aug 20 23:35 W 5 10 Clear CLR 71 71     100%   72 29.98        
Aug 20 23:15 WSW 6 10 Clear CLR 72 71     99%   73 29.98        
Aug 20 22:55 WSW 8 10 Clear CLR 72 72     100%   73 29.98        
Aug 20 22:35 SW 7 10 Partly Cloudy SCT042 71 71     100%   73 29.98        
Aug 20 22:15 WSW 6 10 Cloudy SCT034 OVC042 72 72     99%   73 29.98        
Aug 20 21:55 SW 7 10 Cloudy BKN032 OVC038 72 72     99%   73 29.98        
Aug 20 21:35 SSW 7 10 Cloudy BKN032 OVC038 72 72     99%   73 29.98        
Aug 20 21:15 S 9 10 Cloudy OVC030 72 72     97%   74 29.96        
Aug 20 20:55 SSW 9 10 Mostly Cloudy BKN030 72 71     98%   74 29.95        
Aug 20 20:35 SSW 9 10 Partly Cloudy SCT030 72 71     96%   74 29.94        
Aug 20 20:15 SSW 9 10 Clear CLR 73 72     96%   74 29.93        
Aug 20 19:55 SSW 9 10 Clear CLR 73 72     96%   74 29.92        
Aug 20 19:35 SSW 7 10 Clear CLR 73 71     91%   75 29.93        
Aug 20 19:15 SSW 6 10 Clear CLR 74 70     87%   75 29.92        
Aug 20 18:55 S 5 10 Clear CLR 75 70     84%   76 29.92       0
Aug 20 18:35 S 8 10 Clear CLR 75 69     81%   76 29.92        
Aug 20 18:15 S 9 10 Clear CLR 76 70     80%   78 29.93        
Aug 20 17:55 S 7 10 Clear CLR 76 69     78%   77 29.94        
Aug 20 17:35 SSE 7 10 Clear CLR 76 69     78%   77 29.94        
Aug 20 17:15 SSE 5 10 Clear CLR 77 69     78%   78 29.94        
Aug 20 16:55 SE 6 10 Clear CLR 77 69     77%   78 29.94        
Aug 20 16:35 SSE 3 10 Clear CLR 76 69     77%   77 29.94        
Aug 20 16:15 SE 5 10 Partly Cloudy SCT100 75 68     78%   76 29.94        
Aug 20 15:55 Calm 10 Mostly Cloudy BKN100 75 67     78%   76 29.95     0  
Aug 20 15:35 S 3 10 Mostly Cloudy BKN100 74 68     80%   75 29.97        
Aug 20 15:15 ESE 5 10 Clear CLR 74 69     84%   76 29.96        
Aug 20 14:55 Calm 10 Clear CLR 73 70     89%   75 30        
Aug 20 14:35 S 6 10 Clear CLR 72 70     95%   73 30.01        
Aug 20 14:15 SE 9 10 Partly Cloudy SCT090 SCT110 70 69     96%     29.98        
Aug 20 13:55 ESE 8 10 Light Rain SCT090 BKN110 69 68     98%     29.99   0    
Aug 20 13:35 WSW 5 10 Light Rain OVC110 69 67     95%     30.03   0    
Aug 20 13:15 W 7 10 Light Rain OVC110 69 67     94%     30.05   0    
Aug 20 12:55 WNW 9 10 Rain BKN110 68 67     96%     30.05   0   0
Aug 20 12:35 NNW 10 7 Rain SCT042 BKN100 OVC110 68 67     98%     30.05   0    
Aug 20 12:15   4 Heavy Rain SCT020 SCT035 BKN046 68 67     96%     30.06   0    
Aug 20 11:55 WSW 7 10 Partly Cloudy SCT045 SCT080 SCT120 81 79     94%   88 30.03        
Aug 20 11:35 S 7 10 Partly Cloudy SCT015 81 78     93%   88 30.02        
Aug 20 11:15 SSE 5 10 Mostly Cloudy BKN015 81 78     90%   90 30.02        
Aug 20 10:55 S 5 10 Partly Cloudy SCT015 82 78     87%   91 30.03        
Aug 20 10:35 SSE 6 10 Clear CLR 82 78     87%   92 29.99        
Aug 20 10:15 S 7 10 Partly Cloudy SCT013 81 78     89%   90 30.01        
Aug 20 09:55 SW 6 10 Clear CLR 81 78     90%   90 30.04        
Aug 20 09:35 SSW 10 10 Clear CLR 81 78     91%   88 30.04        
Aug 20 09:15 SSW 5 10 Clear CLR 80 78     94%   86 30.03        
Aug 20 08:55 SSW 3 10 Clear CLR 78 78     100%   82 30.02        
Aug 20 08:35 S 5 10 Clear CLR 76 76     100%   78 30.02        
Aug 20 08:15 SSE 5 7 Clear CLR 75 75     100%   77 30.03        
Aug 20 07:55 Calm 5 Fog/Mist CLR 74 74     100%   76 30.03        
Aug 20 07:35 Calm 4 Fog/Mist SCT001 73 73     100%   74 30.02        
Aug 20 07:15 Calm 2 Fog/Mist BKN001 72 72     100%   74 30.01        
Aug 20 06:55 Calm 0.25 Fog OVC001 71 71     100%   73 30.01        
Aug 20 06:35 Calm 0.25 Fog OVC001 71 71     100%   72 30.01        
Aug 20 06:15 Calm 0.25 Fog OVC001 69 69     100%     30        
Aug 20 05:55 Calm 0.25 Fog BKN001 70 70     100%     29.98        
Aug 20 05:35 ESE 5 0.25 Fog OVC001 69 69     100%     29.99        
Aug 20 05:15 Calm 0.25 Fog OVC001 69 69     100%     30        
Aug 20 04:55 Calm 0.75 Fog/Mist BKN003 69 69     100%     30.01        
Aug 20 04:35 Calm 1.75 Fog/Mist VV007 69 69     100%     30.02        
Aug 20 04:15 Calm 1.25 Fog/Mist VV007 69 69     100%     30.02        
Aug 20 03:55 Calm 2 Fog/Mist CLR 70 70     100%     30.02        
Aug 20 03:35 Calm 1.75 Fog/Mist VV007 70 70     100%     30.02        
Aug 20 03:15 Calm 2.5 Fog/Mist CLR 70 70     100%   72 30.02        
Aug 20 02:55 Calm 7 Clear CLR 70 70     100%   72 30.02        
Aug 20 02:35 Calm 3 Fog/Mist SCT031 71 71     100%   72 30.02        
Aug 20 02:15 Calm 7 Partly Cloudy SCT038 71 71     100%   72 30.02        
Aug 20 01:55 Calm 10 Partly Cloudy SCT038 SCT065 72 72     100%   74 30.02        
Aug 20 01:35 Calm 10 Clear   71 71     100%   72 30.02        
Aug 20 01:15 Calm 10 Clear   72 72     100%   74 30.02        
Aug 20 00:55 Calm 10 Clear   72 72     100%   74 30.02        
Aug 20 00:35 ESE 3 10 Clear CLR 72 72     100%   73 30.02        
Aug 20 00:15 Calm 10 Clear CLR 73 73     100%   74 30.02        
Aug 19 23:55 Calm 10 Clear CLR 72 72     100%   74 30.02        
Aug 19 23:35 Calm 10 Clear CLR 73 73     100%   74 30.02        
Aug 19 23:15 Calm 10 Partly Cloudy SCT030 73 72     99%   74 30.02        
Aug 19 22:55 Calm 10 Partly Cloudy SCT030 74 73     98%   76 30.02        
Aug 19 22:35 Calm 10 Clear CLR 73 73     100%   75 30.01        
Aug 19 22:15 E 5 10 Clear CLR 74 72     94%   76 30        
Aug 19 21:55 Calm 10 Clear CLR 74 73     95%   76 30        
Aug 19 21:35 E 3 10 Clear CLR 75 73     95%   76 30        
Aug 19 21:15 Calm 10 Clear CLR 75 73     94%   77 30        
Aug 19 20:55 Calm 10 Clear CLR 76 73     91%   78 30        
Aug 19 20:35 Calm 10 Clear CLR 77 73     88%   79 30        
Aug 19 20:15 S 5 10 Clear CLR 78 73     86%   80 29.99        
Aug 19 19:55 SSE 5 10 Clear CLR 79 74     86%   82 29.99        
Aug 19 19:35 Calm 10 Clear CLR 80 75     83%   86 29.98        
Aug 19 19:15 Calm 10 Clear CLR 83 74     76%   90 29.97        
Aug 19 18:55 SSE 5 10 Clear CLR 84 74     74%   91 29.98        
Aug 19 18:35 SE 3 10 Clear CLR 85 74     69%   92 29.97        
Aug 19 18:15 Calm 10 Clear CLR 86 72     63%   92 29.98        
Aug 19 17:55 SSE 3 10 Clear CLR 86 73     64%   93 29.98        
Aug 19 17:35 S 5 10 Clear CLR 86 73     66%   93 29.98        
Aug 19 17:15 SSE 5 10 Clear CLR 86 73     67%   93 29.99        
Aug 19 16:55 SE 5 10 Clear CLR 87 73     64%   95 29.99        
Aug 19 16:35 SE 5 10 Clear CLR 87 73     64%   94 29.99        
Aug 19 16:15 ESE 3 10 Clear CLR 87 69     55%   92 29.99        
Aug 19 15:55 ESE 3 10 Clear CLR 87 67     52%   90 30        
Aug 19 15:35 SE 3 10 Clear CLR 87 69     56%   91 30        
Aug 19 15:15 ESE 5 10 Clear CLR 86 72     63%   93 30        
Aug 19 14:55 SE 6 10 Clear CLR 86 72     63%   93 30.01        
Aug 19 14:35 Calm 10 Clear CLR 86 72     64%   92 30.01        
Aug 19 14:15 SE 5 10 Clear CLR 86 73     65%   93 30.01        
Aug 19 13:55 E 3 10 Clear CLR 85 74     69%   93 30.02        
Aug 19 13:35 SE 5 10 Clear CLR 84 75     74%   93 30.03        
Aug 19 13:15 SSE 3 10 Partly Cloudy SCT014 83 76     79%   92 30.03        
Aug 19 12:55 Calm 10 Partly Cloudy SCT014 82 75     78%   89 30.03        
Aug 19 12:35 SE 3 10 Partly Cloudy SCT012 82 76     81%   89 30.02        
Aug 19 12:15 ESE 3 10 Partly Cloudy SCT012 81 76     83%   88 30.03        
Aug 19 11:55 SE 3 10 Mostly Cloudy BKN010 80 76     85%   86 30.04        
Aug 19 11:35 SSE 3 7 Mostly Cloudy BKN008 79 76     91%   83 30.03        
Aug 19 11:15 Calm 10 Mostly Cloudy BKN006 79 77     95%   83 30.04        
Aug 19 10:55 ESE 3 7 Cloudy OVC006 76 76     100%   78 30.03        
Aug 19 10:35 Calm 7 Cloudy OVC004 75 75     100%   77 30.03        
Aug 19 10:15 Calm 5 Fog/Mist OVC004 74 74     100%   76 30.02        
Aug 19 09:55 Calm 4 Fog/Mist OVC002 73 73     100%   75 30.02        
Aug 19 09:35 Calm 1.75 Fog/Mist OVC002 73 73     100%   75 30.01        
Aug 19 09:15 Calm 0.5 Fog OVC002 72 72     100%   74 30.01        
Aug 19 08:55 Calm 0.25 Fog OVC002 71 71     100%   73 30        
Aug 19 08:35 Calm 0.25 Fog OVC002 71 71     100%   73 30.01        
Aug 19 08:15 Calm 0.25 Fog OVC002 71 71     100%   72 30        
Aug 19 07:55 Calm 0.25 Fog OVC002 70 70     100%   72 30        
Aug 19 07:35 Calm 0.25 Fog OVC002 70 70     100%     30        
Aug 19 07:15 Calm 5 Fog/Mist OVC004 70 70     100%     30        
Aug 19 06:55 Calm 10 Cloudy OVC006 69 69     100%     29.99        
Aug 19 06:35 Calm 7 Cloudy OVC006 68 68     100%     29.99        
Aug 19 06:15 Calm 5 Fog/Mist OVC006 67 67     100%     29.98        
Aug 19 05:55 S 3 7 Partly Cloudy SCT008 67 67     100%     29.97        
Aug 19 05:35 Calm 3 Fog/Mist CLR 67 67     100%     29.97        
Aug 19 05:15 Calm 4 Fog/Mist CLR 67 67     100%     29.96        
Aug 19 04:55 Calm 4 Fog/Mist CLR 67 67     100%     29.96        
Aug 19 04:35 Calm 5 Fog/Mist SCT026 SCT035 BKN046 67 67     100%     29.96        
Aug 19 04:15 Calm 5 Fog/Mist SCT035 BKN046 67 67     100%     29.96        
Aug 19 03:55 Calm 5 Fog/Mist SCT022 SCT039 67 67     100%     29.95        
Aug 19 03:35 Calm 7 Mostly Cloudy BKN022 67 67     100%     29.95        
Aug 19 03:15 Calm 7 Partly Cloudy SCT022 67 67     100%     29.95        
Aug 19 02:55 Calm 10 Clear CLR 67 67     100%     29.94        
May 15 12:55 ENE 5 2.5 Heavy Rain SCT017 BKN028 OVC042 70 70     100%     29.95   0   0
May 15 12:15 N 6 10 Light Rain BKN026 BKN037 BKN065 70 67     88%   71 29.96        
May 15 07:35 SSW 7 10 Clear CLR 68 65     91%     29.87        
May 14 15:15   10 Partly Cloudy SCT065 90 63     41%   91 29.85        
May 14 11:15 E 11 10 Clear CLR 80 61     52%   81 29.97        
May 14 10:55 ENE 7 10 Partly Cloudy SCT070 SCT090 80 61     53%   80 29.97        
May 14 10:35 E 7 10 Partly Cloudy SCT060 SCT070 SCT090 78 63     59%   79 29.98        
May 14 05:55 SSW 7 7 Mostly Cloudy BKN060 66 65     95%     29.9        
May 14 02:35 ESE 3 7 Clear CLR 65 63     92%     29.94        
May 14 01:55 ESE 3 7 Clear CLR 65 63     91%     29.94        
May 13 21:55 Calm 10 Clear CLR 69 64     83%     29.93        
May 13 21:15 S 3 10 Clear CLR 72 64     76%   72 29.89        
May 13 14:55 NW 7 10 Partly Cloudy SCT060 SCT080 85 66     54%   87 29.96        
May 13 13:55 Calm 10 Clear CLR 83 65     55%   84 29.95        
May 13 01:35 SSE 13 10 Clear CLR 60 55     85%     29.92        
May 12 17:55 NE 5 10 Clear CLR 75 60     60%   75 29.96        
May 12 13:55 N 7 10 Cloudy OVC046 71 57     62%   71 30.04        
May 12 08:15 WNW 8 10 Clear CLR 70 59     69%     30.01        
Notice The following observation data may not be complete
May 12 06:15   10 Clear CLR          %              
May 12 02:35 SSW 11 10 Clear CLR 69 57     68%     29.87        
May 12 00:15 SSW 9 10 Clear CLR 72 58     62%   72 29.89        
Notice The following observation data may not be complete
May 11 21:35   10 Clear CLR          %              
May 11 20:15   10 Clear CLR 79 59     50%   79 29.83        
May 11 18:55   10 Clear CLR 84 58     42%   84 29.82        
May 11 15:55 SSW 14 10 Clear CLR 85 60     44%   85 29.83        
May 11 12:15 WSW 15 10 Partly Cloudy SCT048 SCT055 82 62     51%   83 29.93        
Jun 12 06:15 SSW 6 10 Clear CLR 71 64     78%   71 30.02        
Notice The following observation data may not be complete
Jun 11 08:15   10 Clear CLR          %              
Jun 11 06:55   10 Clear CLR 71 59     66%   70 30.02        
Jun 11 06:15 SSW 6 10 Clear CLR 68 58     71%     30.01        
Notice The following observation data may not be complete
Jun 11 03:35   10 Clear CLR          %              
Jun 11 02:35   10 Clear CLR 71 58     64%   70 29.95        
Jun 10 21:35 S 10 10 Clear CLR 75 55     50%   75 29.9        
Jun 10 19:35 SSW 15 10 Clear CLR 82 52     35%   81 29.87        
Jun 10 18:35   10 Clear CLR 85 51     31%   83 29.86        
Jun 10 18:15   10 Clear CLR 85 51     31%   83 29.86        
Jun 10 10:55   10 Clear CLR 81 54     40%   80 29.95        
Jun 10 10:15   10 Clear CLR 80 55     43%   79 29.95        
Notice The following observation data may not be complete
Jun 10 04:35   10 Clear CLR          %              
Jun 09 23:35 SSW 6 10 Clear CLR 70 51     52%     29.87        
Jun 09 09:55 WSW 16 10 Clear CLR 78 52     40%   78 29.87        
Notice The following observation data may not be complete
Jun 09 07:15   10 Partly Cloudy SCT110          %              
Jun 09 02:55 Calm 10 Clear CLR 60 48     64%     29.84        
Jun 09 00:35 SSW 6 10 Clear   66 48     53%     29.85        
Jun 08 22:35 SSW 5 10 Clear CLR 68 49     51%     29.87        
Jun 08 20:15 S 3 10 Clear CLR 74 47     38%   73 29.86        
Notice The following observation data may not be complete
Jun 08 17:15   10 Clear CLR          %              
Jun 08 12:55 ESE 7 10 Clear CLR 76 44     31%   75 29.97        
Jun 08 07:35 Calm 10 Clear CLR 61 50     65%     30.04        
Notice The following observation data may not be complete
Jun 08 00:15   10 Clear CLR          %              
Notice The following observation data may not be complete
Jun 07 22:15   10 Clear CLR          %              
Jun 07 19:15 E 11 10 Clear CLR 73 42     33%   71 30.02        
Jun 07 17:55 ENE 11 10 Clear CLR 75 43     32%   73 30.01        
Notice The following observation data may not be complete
Jun 07 16:15   10 Clear CLR          %              
Jun 07 15:15   10 Partly Cloudy SCT070 75 44     32%   74 30.03        
Jun 07 14:55 E 14 10 Clear CLR 76 44     33%   75 30.03        
Jun 07 12:15   10 Clear   73 42     33%   71 30.05        
Jun 07 10:55   10 Clear CLR 70 45     40%   69 30.06        
Jun 05 23:55 NNE 13 10 Clear CLR 61 52     73%     29.9        
Jun 05 23:35 NNE 11 10 Clear CLR 61 52     73%     29.9        
Jun 05 22:15 NNE 13 10 Clear CLR 63 54     71%     29.89        
Jun 05 21:35 N 13 10 Light Rain CLR 65 54     70%     29.87        
Jun 05 20:55   10 Light Rain CLR 66 56     69%     29.83